Regional Weather Roundup
Issued by NWS

Home | Current Version | Previous Version | Text Only | Print | Product List | Glossary Off
Versions: 1 2 3 4 5 6 7 8 9 10 11 12 13 14 15 16 17 18 19 20 21 22 23 24 25 26 27 28 29 30 31 32 33 34 35 36 37 38 39 40 41 42 43 44 45 46 47 48 49 50

000
ASUS43 KDTX 300301
RWRMI
MICHIGAN HOURLY REGIONAL WEATHER ROUNDUP
NATIONAL WEATHER SERVICE DETROIT/PONTIAC MI
1100 PM EDT SUN MAY 29 2016

NOTE: "FAIR" INDICATES FEW OR NO CLOUDS BELOW 12,000 FEET WITH NO
SIGNIFICANT WEATHER AND/OR OBSTRUCTION TO VISIBILITY.

MIZ047>049-052>055-059>063-066>070-074>076-081>083-300400-
SOUTHEAST LOWER MICHIGAN

CITY           SKY/WX    TMP DP  RH WIND       PRES   REMARKS
ADRIAN         CLEAR     71  55  56 NW5       29.99R
ALMA           PTCLDY    64  58  80 SW5       29.96S
ANN ARBOR      CLEAR     69  55  60 NW5       29.98R
BAD AXE        CLEAR     68  55  64 W6        29.94S
CARO           CLEAR     69  56  63 SW7       29.95R
DETROIT CITY   CLEAR     76  56  49 NW13G20   29.96R
DETROIT        PTCLDY    74  56  53 NW12      29.97R
FLINT          CLEAR     71  55  56 SW6       29.97R
GROSSE ILE     CLEAR     73  61  64 NW7       29.96R
HILLSDALE      CLEAR     65  50  57 NW3       30.01R
HOWELL         CLEAR     67  55  64 SW3       29.99R

CITY           SKY/WX    TMP DP  RH WIND       PRES   REMARKS
JACKSON        CLEAR     67  55  65 CALM      30.00R
LAMBERTVILLE   CLEAR     75  57  53 W3        29.99R
LANSING        CLEAR     68  57  68 SW5       29.98S
LAPEER         FAIR      70  55  57 W5        29.97S
MASON          CLEAR     66  56  70 CALM      29.99S
MONROE         CLEAR     74  59  60 NW10G20   29.96R
MT. CLEMENS    PTCLDY    74  59  58 NW7       29.94R
PONTIAC        CLEAR     70  55  59 W8        29.98R
PORT HOPE        N/A     71  58  63 VRB5      29.91R
PORT HURON     MOCLDY    64  64 100 CALM      29.96R
TRI CITIES     CLEAR     70  57  63 SW6       29.95R
MIDLAND        FAIR      68  57  67 CALM      29.93S
TROY           CLEAR     75  56  50 W8        29.99R
SAGINAW HB     CLEAR     70  55  60 SW7       29.95S
$$
MIZ043>046-050>051-056>058-064>065-071>073-077>080-300400-
SOUTHWEST LOWER MICHIGAN

CITY           SKY/WX    TMP DP  RH WIND       PRES   REMARKS
BATTLE CREEK   CLEAR     66  56  70 SW6       30.00R
BENTON HARBOR  CLEAR     66  57  72 W5        29.98S
BIG RAPIDS     CLOUDY    66  61  82 CALM      29.96R
COLDWATER      CLEAR     63  55  77 CALM      30.00S
FREMONT        FAIR      63  59  88 SW5       29.96R
HOLLAND        CLEAR     65  56  72 W5        29.98R
GRAND RAPIDS   PTCLDY    70  58  65 SW6       29.98R
IONIA          FAIR      66  56  69 SW6       29.97R
KALAMAZOO      CLEAR     67  56  67 SW5       29.99S
LUDINGTON      PTCLDY    61  56  84 CALM      29.95R
MARSHALL       CLEAR     65  57  73 CALM      29.99S
MOUNT PLEASANT CLEAR     69  58  68 SW5       29.94S
MUSKEGON       PTCLDY    61  54  77 CALM      29.97R
SOUTH HAVEN    CLEAR     67  57  69 W3        29.98S
$$
MIZ016>042-300400-
NORTHERN LOWER MICHIGAN

CITY           SKY/WX    TMP DP  RH WIND       PRES   REMARKS
ALPENA         CLOUDY    69  57  65 SW6       29.88S
BEAVER ISLAND  CLEAR     55  53  95 SW10      29.88R
BELLAIRE       CLOUDY    69  58  67 SW3       29.90R
CADILLAC       PTCLDY    65  57  76 SW8       29.94S
CHARLEVOIX     CLOUDY    64  57  77 W13G18    29.92R
FRANKFORT      CLOUDY    60  55  84 CALM      29.92S
GAYLORD        PTCLDY    66  57  72 SW10      29.91R
GRAYLING       CLOUDY    67  58  74 CALM      29.93S
HARBOR SPRINGS CLOUDY    64  57  79 W9G16     29.88R
HOUGHTON LAKE  PTCLDY    67  59  75 SW10      29.94R
OSCODA         CLEAR     68  56  66 SW7       29.90S
PELLSTON       PTCLDY    64  56  75 W8G20     29.88R
ROGERS CITY    CLOUDY    68  56  65 SW8       29.87S
TRAVERSE CITY  CLOUDY    70  58  65 SW9G20    29.89R
$$
MIZ007>008-015-300400-
EASTERN UPPER MICHIGAN

CITY           SKY/WX    TMP DP  RH WIND       PRES   REMARKS
KINROSS          N/A     59  57  94 CALM      29.84R
MACKINAC ISLAN CLOUDY    57  54  89 SW10G18   29.85R
NEWBERRY       CLOUDY    60  59  97 SW3       29.85R FOG
S. S. MARIE    RAIN      61  58  90 NW9       29.84R FOG
MUNISING         N/A     61  60  97 VRB3      29.84S
$$
MIZ004>006-011>014-085-300400-
CENTRAL UPPER MICHIGAN

CITY           SKY/WX    TMP DP  RH WIND       PRES   REMARKS
MANISTIQUE     MOCLDY    61  60  97 W7        29.86R
ESCANABA       CLEAR     63  57  82 W7        29.88R
MENOMINEE      MOCLDY    68  57  68 CALM      29.92R
SAWYER-GWINN   CLEAR     59  56  89 W8        29.88S
$$
MIZ001>003-009>011-084-300400-
WESTERN UPPER MICHIGAN

CITY           SKY/WX    TMP DP  RH WIND       PRES   REMARKS
IRON MOUNTAIN  CLEAR     60  56  86 W3        29.89R
HOUGHTON       CLEAR     57  52  83 W14       29.86R
COPPER HARBOR    N/A     61  54  77 NW16G25   29.82R
IRONWOOD       CLEAR     55  55 100 CALM      29.90R
$$

ABBREVIATIONS USED IN REMARKS
   TC - TEMPERATURE IN CELSIUS
  WCI - WIND CHILL INDEX
   HX - HEAT INDEX
  VSB - VISIBILITY





USA.gov is the U.S. government's official web portal to all federal, state and local government web resources and services.